Track WESTFORD NEEDLES now! 10-day predictions WESTFORD NEEDLES is classified as:
1 02375U 63014W 21101.33114868 -.00000266 00000-0 -16091-1 0 9994 2 02375 86.2255 321.8816 1953789 126.8556 252.7907 8.76938308205798